• Join FlightAware (Why Join?)
  • Login
  • US Flag GB Flag 
01:05 EDT


 

Airport Tracker/Info


-or-


 

Live Flight TrackerFlight Track Log ✈ N408RT ✈ 28-Feb-2012 ✈ KMTH - KDAL

Flight Track Log - Related Links

Times and Time Zones

All times are in EST time to prevent confusion due to time zone crossing. See the N408RT flight status page for this flight to view local times or setup timezone preferences in your user account.

Time Position Orientation Groundspeed Altitude Reporting Facility
EST Latitude Longitude Course Direction KTS MPH feet Rate Location/Type
09:09 24.8761 -81.0433 333° Northwest 409 471 10,300  Level Miami Center
09:10 24.9397 -81.0797 335° Northwest 319 367 13,300 2,700 Climbing Miami Center
09:11 25.0056 -81.1142 333° Northwest 281 323 15,800 2,220 Climbing Miami Center
09:12 25.0794 -81.1556 330° Northwest 281 323 17,800 2,280 Climbing Miami Center
09:13 25.1533 -81.2019 334° Northwest 287 330 20,400 2,100 Climbing Miami Center
09:14 25.2211 -81.2386 334° Northwest 294 338 22,100 2,100 Climbing Miami Center
09:15 25.3014 -81.2828 333° Northwest 301 346 24,700 2,340 Climbing Miami Center
09:16 25.3814 -81.3272 333° Northwest 306 352 26,800 2,100 Climbing Miami Center
09:17 25.4594 -81.3714 333° Northwest 311 358 28,900 2,100 Climbing Miami Center
09:18 25.5394 -81.4158 334° Northwest 319 367 31,000 2,040 Climbing Miami Center
09:19 25.6175 -81.4581 334° Northwest 313 360 33,000 2,040 Climbing Miami Center
09:20 25.6914 -81.4978 332° Northwest 301 346 35,100 1,680 Climbing Miami Center
09:21 25.7592 -81.5372 333° Northwest 291 335 36,400 960 Climbing Miami Center
09:22 25.8308 -81.5769 333° Northwest 286 329 37,100 660 Climbing Miami Center
09:23 25.9047 -81.6189 335° Northwest 286 329 37,800 600 Climbing Miami Center
09:24 25.9808 -81.6589 333° Northwest 286 329 38,400 600 Climbing Miami Center
09:25 26.0586 -81.7039 334° Northwest 298 343 39,100 600 Climbing Miami Center
09:26 26.1364 -81.7461 333° Northwest 303 349 39,700 360 Climbing Miami Center
09:27 26.2164 -81.7911 333° Northwest 303 349 39,900 60 Climbing Miami Center
09:28 26.2983 -81.8386 336° Northwest 313 360 39,900  Level Miami Center
09:29 26.3886 -81.8842 331° Northwest 333 383 39,900  Level Miami Center
09:30 26.4806 -81.9414 333° Northwest 344 396 39,900  Level Miami Center
09:31 26.5728 -81.9942 332° Northwest 344 396 39,900  Level Miami Center
09:32 26.6647 -82.0492 333° Northwest 357 411 39,900  Level Miami Center
09:33 26.7567 -82.1022 334° Northwest 367 422 39,900  Level Miami Center
09:34 26.8489 -82.1528 333° Northwest 367 422 39,900  Level Miami Center
09:35 26.9408 -82.2058 336° Northwest 367 422 39,900  Level Miami Center
09:36 27.0350 -82.2522 331° Northwest 367 422 40,000  Climbing Miami Center
09:37 27.1267 -82.3100 334° Northwest 367 422 39,900 -60 Descending Miami Center
09:38 27.2189 -82.3611 334° Northwest 367 422 39,900  Level Miami Center
09:39 27.3047 -82.4072 332° Northwest 373 429 40,000  Climbing Miami Center
09:40 27.3964 -82.4631 334° Northwest 373 429 40,000  Level Miami Center
09:41 27.5006 -82.5197 333° Northwest 373 429 40,000  Level Miami Center
09:42 27.5925 -82.5733 332° Northwest 373 429 40,000  Level Miami Center
09:43 27.6739 -82.6219 332° Northwest 373 429 40,000 -60 Level Miami Center
09:44 27.8181 -82.7094 332° Northwest 369 425 39,900 -60 Descending Jacksonville Center
09:45 27.9078 -82.7633 334° Northwest 369 425 39,900  Level Jacksonville Center
09:46 27.9975 -82.8128 332° Northwest 369 425 39,900  Level Jacksonville Center
09:47 28.0872 -82.8667 334° Northwest 369 425 39,900  Level Jacksonville Center
09:48 28.1750 -82.9161 333° Northwest 369 425 39,900  Level Jacksonville Center
09:49 28.2647 -82.9681 331° Northwest 364 419 39,900  Level Jacksonville Center
09:50 28.3522 -83.0222 334° Northwest 364 419 39,900  Level Jacksonville Center
09:51 28.4419 -83.0719 332° Northwest 359 413 39,900  Level Jacksonville Center
09:52 28.5294 -83.1242 332° Northwest 359 413 39,900  Level Jacksonville Center
09:53 28.6192 -83.1789 332° Northwest 359 413 39,900  Level Jacksonville Center
09:54 28.7067 -83.2311 333° Northwest 353 406 39,900  Level Jacksonville Center
09:55 28.7964 -83.2836 333° Northwest 353 406 39,900  Level Jacksonville Center
09:56 28.8858 -83.3361 333° Northwest 353 406 39,900  Level Jacksonville Center
09:57 28.9753 -83.3886 331° Northwest 353 406 40,000  Climbing Jacksonville Center
09:58 29.0628 -83.4436 333° Northwest 353 406 39,900 -60 Descending Jacksonville Center
09:59 29.1461 -83.4917 333° Northwest 352 405 39,900  Level Jacksonville Center
10:00 29.2356 -83.5447 333° Northwest 352 405 39,900  Level Jacksonville Center
10:01 29.3250 -83.5975 333° Northwest 347 399 39,900  Level Jacksonville Center
10:02 29.4125 -83.6483 333° Northwest 347 399 39,900  Level Jacksonville Center
10:03 29.5019 -83.7014 331° Northwest 347 399 39,900  Level Jacksonville Center
10:04 29.5892 -83.7572 332° Northwest 347 399 39,900  Level Jacksonville Center
10:05 29.6786 -83.8131 334° Northwest 353 406 39,900  Level Jacksonville Center
10:06 29.7681 -83.8639 316° Northwest 353 406 39,900  Level Jacksonville Center
10:07 29.8383 -83.9414 301° West 347 399 39,900  Level Jacksonville Center
10:08 29.8878 -84.0378 297° West 337 388 39,900  Level Jacksonville Center
10:09 29.9306 -84.1364 298° West 342 394 39,900  Level Jacksonville Center
10:10 29.9736 -84.2306 296° West 342 394 39,900  Level Jacksonville Center
10:11 30.0161 -84.3294 298° West 342 394 39,900  Level Jacksonville Center
10:12 30.0611 -84.4261 298° West 342 394 39,900  Level Jacksonville Center
10:13 30.1058 -84.5228 297° West 342 394 39,900  Level Jacksonville Center
10:14 30.1483 -84.6197 296° West 342 394 39,900  Level Jacksonville Center
10:15 30.1908 -84.7189 300° West 342 394 39,900  Level Jacksonville Center
10:16 30.2375 -84.8136 296° West 342 394 39,900  Level Jacksonville Center
10:17 30.2797 -84.9131 298° West 342 394 39,900  Level Jacksonville Center
10:18 30.3242 -85.0103 298° West 342 394 39,900  Level Jacksonville Center
10:19 30.3683 -85.1075 297° West 342 394 39,900  Level Jacksonville Center
10:20 30.4144 -85.2147 298° West 342 394 39,900  Level Jacksonville Center
10:21 30.4586 -85.3119 297° West 342 394 39,900  Level Jacksonville Center
10:22 30.5006 -85.4072 297° West 342 394 39,900  Level Jacksonville Center
10:23 30.5444 -85.5072 296° West 342 394 39,900  Level Jacksonville Center
10:24 30.5842 -85.6025 297° West 342 394 39,900  Level Jacksonville Center
10:25 30.6261 -85.6978 296° West 342 394 39,900  Level Jacksonville Center
10:26 30.6678 -85.7956 295° West 342 394 39,900  Level Jacksonville Center
10:27 30.7072 -85.8933 282° West 342 394 39,900  Level Jacksonville Center
10:28 30.7256 -85.9978 277° West 336 387 39,900  Level Jacksonville Center
10:29 30.7375 -86.1044 276° West 330 380 39,900  Level Jacksonville Center
10:30 30.7472 -86.2114 277° West 330 380 39,900  Level Jacksonville Center
10:31 30.7589 -86.3206 278° West 335 386 39,900  Level Jacksonville Center
10:32 30.7708 -86.4247 276° West 335 386 40,000  Climbing Jacksonville Center
10:33 30.7803 -86.5339 276° West 335 386 39,900 -60 Descending Jacksonville Center
10:34 30.7897 -86.6406 280° West 335 386 39,900  Level Jacksonville Center
10:35 30.8053 -86.7478 277° West 330 380 40,000  Climbing Jacksonville Center
10:36 30.8164 -86.8569 276° West 335 386 40,000  Level Jacksonville Center
10:37 30.8258 -86.9614 277° West 335 386 40,000  Level Jacksonville Center
10:38 30.8367 -87.0708 277° West 335 386 40,000  Level Jacksonville Center
10:40 30.8544 -87.2500 275° West 333 383 40,000  Level Houston Center
10:41 30.8622 -87.3561 276° West 333 383 40,000  Level Houston Center
10:42 30.8717 -87.4644 278° West 328 377 40,000  Level Houston Center
10:43 30.8833 -87.5678 276° West 328 377 40,000  Level Houston Center
10:44 30.8928 -87.6764 278° West 335 386 40,000 -60 Level Houston Center
10:45 30.9039 -87.7728 279° West 335 386 39,900 -60 Descending Houston Center
10:46 30.9175 -87.8786 273° West 335 386 39,900  Level Houston Center
10:47 30.9225 -87.9872 278° West 335 386 39,900  Level Houston Center
10:48 30.9358 -88.0933 278° West 335 386 39,900  Level Houston Center
10:49 30.9489 -88.1994 274° West 335 386 39,900  Level Houston Center
10:50 30.9558 -88.3081 273° West 335 386 39,900  Level Houston Center
10:51 30.9606 -88.4192 278° West 335 386 39,900  Level Houston Center
10:52 30.9736 -88.5228 273° West 335 386 39,900  Level Houston Center
10:53 30.9783 -88.6389 275° West 341 392 40,000  Climbing Houston Center
10:54 30.9869 -88.7453 275° West 341 392 40,000  Level Houston Center
10:55 30.9956 -88.8539 276° West 346 398 40,000  Level Houston Center
10:56 31.0058 -88.9603 275° West 341 392 40,000  Level Houston Center
10:57 31.0144 -89.0692 275° West 341 392 40,000  Level Houston Center
10:58 31.0228 -89.1803 275° West 341 392 40,000  Level Houston Center
10:59 31.0308 -89.2867 275° West 341 392 40,000  Level Houston Center
11:00 31.0392 -89.3978 275° West 341 392 40,000  Level Houston Center
11:01 31.0472 -89.5067 276° West 346 398 40,000  Level Houston Center
11:02 31.0572 -89.6131 273° West 346 398 40,000  Level Houston Center
11:03 31.0628 -89.7222 276° West 346 398 40,000  Level Houston Center
11:04 31.0728 -89.8358 275° West 340 391 40,000  Level Houston Center
11:05 31.0806 -89.9425 275° West 335 386 40,000  Level Houston Center
11:06 31.0881 -90.0442 275° West 329 379 40,000  Level Houston Center
11:07 31.0956 -90.1481 277° West 329 379 40,000  Level Houston Center
11:08 31.1069 -90.2522 273° West 329 379 40,000  Level Houston Center
11:09 31.1122 -90.3589 273° West 329 379 40,000  Level Houston Center
11:10 31.1175 -90.4656 279° West 329 379 40,000  Level Houston Center
11:11 31.1308 -90.5622 274° West 329 379 40,000  Level Houston Center
11:12 31.1378 -90.6714 276° West 334 384 40,000  Level Houston Center
11:13 31.1469 -90.7781 274° West 334 384 40,000  Level Houston Center
11:14 31.1539 -90.8872 274° West 334 384 40,000  Level Houston Center
11:15 31.1608 -90.9986 275° West 334 384 40,000  Level Houston Center
11:16 31.1694 -91.1078 274° West 339 390 40,000  Level Houston Center
11:17 31.1761 -91.2169 274° West 339 390 40,000  Level Houston Center
11:18 31.1828 -91.3214 274° West 339 390 40,000  Level Houston Center
11:19 31.1892 -91.4306 275° West 334 384 40,000  Level Houston Center
11:20 31.1978 -91.5422 274° West 334 384 40,000  Level Houston Center
11:21 31.2042 -91.6489 274° West 339 390 40,000  Level Houston Center
11:22 31.2103 -91.7606 275° West 339 390 40,000  Level Houston Center
11:23 31.2186 -91.8675 274° West 339 390 40,000  Level Houston Center
11:24 31.2244 -91.9742 275° West 339 390 40,000 -60 Level Houston Center
11:25 31.2325 -92.0858 275° West 345 397 39,900 -60 Descending Houston Center
11:26 31.2406 -92.1953 274° West 345 397 39,900  Level Houston Center
11:27 31.2464 -92.3022 274° West 345 397 39,900  Level Houston Center
11:28 31.2522 -92.4089 277° West 345 397 39,900  Level Houston Center
11:29 31.2639 -92.5158 293° West 345 397 39,900  Level Houston Center
11:30 31.3028 -92.6208 293° West 340 391 39,900  Level Houston Center
11:31 31.3397 -92.7208 294° West 340 391 39,900 -180 Level Houston Center
11:32 31.3786 -92.8233 294° West 340 391 39,600 -540 Descending Houston Center
11:34 31.4589 -93.0325 293° West 343 395 38,400 -540 Descending Fort Worth Center
11:35 31.4958 -93.1353 293° West 343 395 38,000 -240 Descending Fort Worth Center
11:36 31.5325 -93.2361 295° West 343 395 38,000  Level Fort Worth Center
11:37 31.5711 -93.3342 293° West 343 395 38,000  Level Fort Worth Center
11:38 31.6056 -93.4278 292° West 332 382 38,000  Level Fort Worth Center
11:39 31.6400 -93.5264 291° West 332 382 38,000 -60 Level Fort Worth Center
11:40 31.6719 -93.6228 293° West 332 382 37,900 -360 Descending Fort Worth Center
11:41 31.7083 -93.7236 291° West 327 376 37,300 -600 Descending Fort Worth Center
11:42 31.7406 -93.8250 293° West 327 376 36,700 -600 Descending Fort Worth Center
11:43 31.7767 -93.9239 291° West 327 376 36,100 -360 Descending Fort Worth Center
11:44 31.8086 -94.0228 293° West 327 376 36,000 -60 Descending Fort Worth Center
11:45 31.8425 -94.1169 291° West 321 369 36,000  Level Fort Worth Center
11:46 31.8764 -94.2208 293° West 328 377 36,000  Level Fort Worth Center
11:47 31.9125 -94.3200 290° West 328 377 36,000  Level Fort Worth Center
11:48 31.9442 -94.4242 293° West 328 377 36,000  Level Fort Worth Center
11:49 31.9800 -94.5258 291° West 328 377 36,000  Level Fort Worth Center
11:50 32.0136 -94.6278 290° West 328 377 36,000  Level Fort Worth Center
11:51 32.0450 -94.7297 292° West 328 377 36,000  Level Fort Worth Center
11:52 32.0806 -94.8317 291° West 328 377 36,000  Level Fort Worth Center
11:53 32.1139 -94.9336 291° West 328 377 36,000 -480 Level Fort Worth Center
11:54 32.1472 -95.0383 291° West 328 377 35,100 -1,620 Descending Fort Worth Center
11:55 32.1781 -95.1356 293° West 323 372 32,800 -2,460 Descending Fort Worth Center
11:56 32.2156 -95.2403 290° West 323 372 30,200 -2,400 Descending Fort Worth Center
11:57 32.2486 -95.3450 293° West 330 380 28,100 -2,040 Descending Fort Worth Center
11:58 32.2878 -95.4522 291° West 351 404 26,200 -1,980 Descending Fort Worth Center
11:59 32.3231 -95.5622 291° West 351 404 24,200 -2,100 Descending Fort Worth Center
12:00 32.3581 -95.6722 290° West 357 411 22,000 -2,280 Descending Fort Worth Center
12:01 32.3906 -95.7772 291° West 351 404 19,700 -2,220 Descending Fort Worth Center
12:02 32.4233 -95.8800 293° West 346 398 17,600 -2,220 Descending Fort Worth Center
12:03 32.4653 -95.9947 289° West 331 381 14,900 -2,160 Descending FAA TRACON SMA TRACON (SMA)
12:04 32.4861 -96.0647 289° West 324 373 13,600 -1,860 Descending FAA TRACON SMA TRACON (SMA)
12:05 32.5058 -96.1333 291° West 317 365 12,400 -1,740 Descending FAA TRACON SMA TRACON (SMA)
12:05 32.5244 -96.1906 289° West 302 348 11,300 -1,800 Descending FAA TRACON SMA TRACON (SMA)
12:06 32.5417 -96.2517 290° West 280 322 10,100 -1,800 Descending FAA TRACON SMA TRACON (SMA)
12:07 32.5578 -96.3042 299° West 274 315 9,000 -1,080 Descending FAA TRACON SMA TRACON (SMA)
12:07 32.5836 -96.3589 305° West 275 316 8,700 -840 Descending FAA TRACON SMA TRACON (SMA)
12:08 32.6144 -96.4119 303° West 282 325 7,900 -1,140 Descending FAA TRACON SMA TRACON (SMA)
12:09 32.6439 -96.4653 306° West 279 321 7,200 -1,020 Descending FAA TRACON SMA TRACON (SMA)
12:09 32.6750 -96.5164 327° Northwest 279 321 6,500 -1,020 Descending FAA TRACON SMA TRACON (SMA)
12:10 32.7178 -96.5497 326° Northwest 297 342 5,900 -1,080 Descending FAA TRACON SMA TRACON (SMA)
12:11 32.7653 -96.5883 326° Northwest 297 342 5,100 -780 Descending FAA TRACON SMA TRACON (SMA)
12:11 32.8069 -96.6214 326° Northwest 290 334 4,900 -360 Descending FAA TRACON SMA TRACON (SMA)
12:12 32.8536 -96.6586 326° Northwest 292 336 4,700 -720 Descending FAA TRACON SMA TRACON (SMA)
12:13 32.8992 -96.6958 325° Northwest 286 329 4,000 -600 Descending FAA TRACON SMA TRACON (SMA)
12:13 32.9350 -96.7256 303° West 256 295 3,900 -120 Descending FAA TRACON SMA TRACON (SMA)
12:14 32.9581 -96.7686 283° West 226 260 3,900 -720 Level FAA TRACON SMA TRACON (SMA)
12:15 32.9675 -96.8156 284° West 208 239 3,000 -780 Descending FAA TRACON SMA TRACON (SMA)
12:15 32.9758 -96.8558 256° West 202 232 2,900 -780 Descending FAA TRACON SMA TRACON (SMA)
12:16 32.9664 -96.9006 241° Southwest 202 232 2,000 -780 Descending FAA TRACON SMA TRACON (SMA)
12:17 32.9506 -96.9350 200° South 178 205 1,900 -120 Descending FAA TRACON SMA TRACON (SMA)
12:17 32.9258 -96.9458 137° Southeast 164 189 1,900 -120 Level FAA TRACON SMA TRACON (SMA)
12:18 32.9042 -96.9217 136° Southeast 152 175 1,800 -420 Descending FAA TRACON SMA TRACON (SMA)
12:19 32.8872 -96.9022 138° Southeast 119 137 1,400 -540 Descending FAA TRACON SMA TRACON (SMA)
12:19 32.8725 -96.8864 135° Southeast 115 132 1,100 -660 Descending FAA TRACON SMA TRACON (SMA)
12:20 32.8569 -96.8678 135° Southeast 114 131 600 -780 Descending FAA TRACON SMA TRACON (SMA)